Location: Aufkirchen
(47.9603°N, 11.3653°E)
Time: 16:32:16
(UTC+01:00)

Transit 2A - Pass Details

Date: 05 December 2020
Orbit: 599 x 960 km, 66.7° (Epoch: 26 January)

Event Time Altitude Azimuth Distance (km) Brightness Sun altitude
Rises 14:42:53 0° 168° (SSE) 3,623 10.1 11.2°
Reaches altitude 10° 14:46:05 10° 153° (SSE) 2,666 9.2 10.9°
Maximum altitude 14:50:33 21° 107° (ESE) 1,959 8.0 10.4°
Drops below altitude 10° 14:54:52 10° 61° (ENE) 2,572 8.2 10.0°
Sets 14:57:53 0° 46° (NE) 3,459 8.7 9.7°
